GW2598 Weather Reports


Display with metric or nautical units.
time (UTC)temp
F
wind
direction
speed
MPH
gust
MPH
rain 1hr
in
rain 24hr
in
rain mn
in
humidity
%
barometer
mb
20260504140110 61 255 3.0 17.0 0.00 0.00 0.00 43 1012.2
20260504110118 51 248 4.0 11.0 0.00 0.00 0.00 51 1013.0
20260504100105 50 219 2.0 4.0 0.00 0.00 0.00 51 1012.8
20260504090119 51 223 2.0 5.0 0.00 0.00 0.00 48 1012.5
20260504081556 51 0 1.0 7.0 0.00 0.00 0.00 49 1012.2
20260504044602 47 213 1.0 3.0 0.00 0.00 0.00 60 1011.7
20260504043057 47 235 0.0 3.0 0.00 0.00 0.00 55 1011.5
20260504041553 48 338 1.0 4.0 0.00 0.00 0.00 58 1011.4
20260504040052 47 0 0.0 3.0 0.00 0.00 0.00 57 1011.4
20260504034559 45 257 0.0 3.0 0.00 0.00 0.00 61 1011.3
20260504033103 44 0 0.0 0.0 0.00 0.00 0.00 64 1011.4
20260504031554 45 0 0.0 0.0 0.00 0.00 0.00 65 1011.3
20260504030052 45 0 0.0 0.0 0.00 0.00 0.00 64 1011.3
20260504024557 46 0 0.0 0.0 0.00 0.00 0.00 62 1011.4
20260504023055 46 0 0.0 0.0 0.00 0.00 0.00 59 1011.5
20260504021557 47 0 0.0 0.0 0.00 0.00 0.00 57 1011.5
20260504020057 48 0 0.0 0.0 0.00 0.00 0.00 55 1011.5
20260504014552 49 0 0.0 0.0 0.00 0.00 0.00 51 1011.4
20260504013057 50 0 0.0 0.0 0.00 0.00 0.00 47 1011.3
20260504011552 52 0 0.0 2.0 0.00 0.00 0.00 45 1011.1
20260504010101 53 0 0.0 4.0 0.00 0.00 0.00 40 1010.9
20260504004553 54 0 0.0 2.0 0.00 0.00 0.00 41 1010.9
20260504003054 55 0 0.0 2.0 0.00 0.00 0.00 36 1010.6
20260504001610 56 0 0.0 4.0 0.00 0.00 0.00 34 1010.3
20260504000055 56 290 0.0 8.0 0.00 0.00 0.00 33 1010.2
20260503234550 57 302 3.0 9.0 0.00 0.00 0.00 31 1009.8
20260503233057 58 266 3.0 11.0 0.00 0.00 0.00 30 1009.7
20260503231555 58 355 3.0 13.0 0.00 0.00 0.00 30 1009.6
20260503230054 59 296 4.0 12.0 0.00 0.00 0.00 28 1009.5
20260503224554 59 299 3.0 13.0 0.00 0.00 0.00 28 1009.3
20260503223053 59 297 7.0 20.0 0.00 0.00 0.00 27 1009.3
20260503221554 59 289 8.0 18.0 0.00 0.00 0.00 27 1009.4
20260503220110 59 340 9.0 19.0 0.00 0.00 0.00 27 1009.4
20260503214553 58 292 9.0 17.0 0.00 0.00 0.00 27 1009.4
20260503213057 58 341 10.0 22.0 0.00 0.00 0.00 27 1009.3
20260503211606 58 317 9.0 18.0 0.00 0.00 0.00 27 1009.1
20260503210058 58 300 10.0 22.0 0.00 0.00 0.00 28 1009.2
20260503204556 58 292 8.0 20.0 0.00 0.00 0.00 28 1009.2
20260503203053 57 352 10.0 22.0 0.00 0.00 0.00 29 1009.3
20260503201556 57 319 10.0 19.0 0.00 0.00 0.00 32 1009.2
20260503200053 56 331 12.0 24.0 0.00 0.00 0.00 30 1009.4
20260503194555 56 340 12.0 25.0 0.00 0.00 0.00 32 1009.3
20260503193102 56 313 13.0 26.0 0.00 0.00 0.00 31 1009.7
20260503191557 55 312 7.0 23.0 0.00 0.00 0.00 34 1009.6
20260503190052 55 265 13.0 25.0 0.00 0.00 0.00 33 1009.8
20260503184552 55 287 9.0 22.0 0.00 0.00 0.00 33 1010.0
20260503183104 54 5 9.0 16.0 0.00 0.00 0.00 36 1010.0
20260503181620 54 14 10.0 20.0 0.00 0.00 0.00 37 1010.0
20260503180124 53 326 12.0 28.0 0.00 0.00 0.00 37 1010.3
20260503174557 54 277 7.0 22.0 0.00 0.00 0.00 37 1010.1
20260503173100 53 281 11.0 29.0 0.00 0.00 0.00 37 1010.2
20260503171555 53 340 9.0 25.0 0.00 0.00 0.00 36 1010.2
20260503170103 53 324 11.0 19.0 0.00 0.00 0.00 36 1010.1